GW2402 Weather Reports


Display with metric or nautical units.
time (UTC)temp
F
wind
direction
speed
MPH
gust
MPH
rain 1hr
in
rain 24hr
in
rain mn
in
humidity
%
barometer
mb
20260903034553 86 0 0.0 1.0 0.00 0.00 0.00 68 1012.7
20260903033051 87 271 0.0 1.0 0.00 0.00 0.00 66 1012.5
20260903031545 88 0 0.0 2.0 0.00 0.00 0.00 63 1012.4
20260903030048 88 0 0.0 0.0 0.00 0.00 0.00 62 1012.0
20260903024550 88 0 0.0 0.0 0.00 0.00 0.00 62 1011.7
20260903023049 88 0 0.0 0.0 0.00 0.00 0.00 61 1011.4
20260903021548 89 0 0.0 0.0 0.00 0.00 0.00 62 1011.3
20260903020052 89 0 0.0 0.0 0.00 0.00 0.00 61 1011.0
20260903014554 90 0 0.0 1.0 0.00 0.00 0.00 58 1010.4
20260903013046 91 39 0.0 0.0 0.00 0.00 0.00 57 1010.2
20260903011608 92 0 0.0 1.0 0.00 0.00 0.00 55 1010.2
20260903010055 92 0 0.0 1.0 0.00 0.00 0.00 54 1010.1
20260903004550 93 0 0.0 1.0 0.00 0.00 0.00 53 1010.3
20260903003049 95 102 0.0 2.0 0.00 0.00 0.00 51 1010.4
20260903001545 97 98 0.0 2.0 0.00 0.00 0.00 48 1010.3
20260903000045 98 0 0.0 2.0 0.00 0.00 0.00 44 1010.3
20260902234554 100 0 0.0 1.0 0.00 0.00 0.00 42 1010.1
20260902233055 99 0 0.0 2.0 0.00 0.00 0.00 45 1010.2
20260902231559 99 0 0.0 1.0 0.00 0.00 0.00 45 1010.3
20260902230048 98 0 0.0 2.0 0.00 0.00 0.00 46 1010.2
20260902224601 98 0 0.0 1.0 0.00 0.00 0.00 47 1010.2
20260902223053 99 0 0.0 1.0 0.00 0.00 0.00 45 1010.2
20260902221550 100 0 0.0 2.0 0.00 0.00 0.00 44 1010.3
20260902220058 100 0 0.0 3.0 0.00 0.00 0.00 43 1010.6
20260902214559 100 127 0.0 2.0 0.00 0.00 0.00 46 1010.7
20260902213055 99 297 0.0 3.0 0.00 0.00 0.00 46 1010.8
20260902211553 99 0 0.0 4.0 0.00 0.00 0.00 46 1011.0
20260902210055 98 352 1.0 4.0 0.00 0.00 0.00 47 1011.2
20260902204554 99 309 0.0 2.0 0.00 0.00 0.00 46 1011.3
20260902203049 99 330 0.0 3.0 0.00 0.00 0.00 46 1011.4
20260902201549 99 347 0.0 3.0 0.00 0.00 0.00 46 1011.7
20260902194559 99 29 0.0 5.0 0.00 0.00 0.00 46 1012.2
20260902193053 100 31 1.0 5.0 0.00 0.00 0.00 46 1012.5
20260902191544 99 0 0.0 4.0 0.00 0.00 0.00 47 1012.8
20260902190057 98 0 0.0 1.0 0.00 0.00 0.00 48 1013.0
20260902184554 98 0 0.0 4.0 0.00 0.00 0.00 47 1013.1
20260902183053 97 0 0.0 3.0 0.00 0.00 0.00 48 1013.5
20260902181549 97 0 0.0 2.0 0.00 0.00 0.00 49 1013.6
20260902180108 96 13 1.0 6.0 0.00 0.00 0.00 49 1013.9
20260902174554 96 0 0.0 3.0 0.00 0.00 0.00 52 1014.2
20260902173050 95 248 0.0 2.0 0.00 0.00 0.00 54 1014.7
20260902171550 94 200 0.0 2.0 0.00 0.00 0.00 54 1014.8
20260902170053 94 80 0.0 2.0 0.00 0.00 0.00 55 1015.0
20260902164601 93 357 0.0 2.0 0.00 0.00 0.00 56 1015.1
20260902163103 92 0 0.0 2.0 0.00 0.00 0.00 60 1015.1
20260902161557 91 0 0.0 3.0 0.00 0.00 0.00 62 1015.2
20260902160050 90 325 0.0 2.0 0.00 0.00 0.00 63 1015.1
20260902154557 89 319 0.0 3.0 0.00 0.00 0.00 65 1015.1
20260902153054 88 334 0.0 2.0 0.00 0.00 0.00 67 1015.2
20260902151552 87 4 0.0 2.0 0.00 0.00 0.00 69 1015.3
20260902150048 85 349 0.0 2.0 0.00 0.00 0.00 71 1015.4
20260902144558 84 343 0.0 2.0 0.00 0.00 0.00 74 1015.3
20260902143059 83 351 0.0 4.0 0.00 0.00 0.00 76 1015.4
20260902141549 82 0 1.0 3.0 0.00 0.00 0.00 77 1015.4
20260902140048 82 0 0.0 2.0 0.00 0.00 0.00 78 1015.3
20260902134547 81 0 0.0 1.0 0.00 0.00 0.00 79 1015.3
20260902133044 80 333 0.0 2.0 0.00 0.00 0.00 79 1015.2
20260902131553 79 0 0.0 3.0 0.00 0.00 0.00 81 1015.0
20260902130054 77 0 0.0 1.0 0.00 0.00 0.00 87 1014.9
20260902124600 77 274 0.0 1.0 0.00 0.00 0.00 88 1014.7
20260902123052 77 0 0.0 1.0 0.00 0.00 0.00 87 1014.6
20260902121601 77 0 0.0 0.0 0.00 0.00 0.00 84 1014.3
20260902120049 77 0 0.0 0.0 0.00 0.00 0.00 85 1014.4
20260902114548 77 0 0.0 0.0 0.00 0.00 0.00 85 1014.4
20260902113047 78 0 0.0 0.0 0.00 0.00 0.00 86 1014.1
20260902111553 78 0 0.0 0.0 0.00 0.00 0.00 85 1014.1
20260902110053 78 0 0.0 0.0 0.00 0.00 0.00 84 1014.2
20260902104552 78 0 0.0 0.0 0.00 0.00 0.00 84 1014.1
20260902103045 78 0 0.0 1.0 0.00 0.00 0.00 85 1014.2
20260902101600 78 0 0.0 1.0 0.00 0.00 0.00 85 1014.0
20260902100103 79 0 0.0 1.0 0.00 0.00 0.00 86 1014.1
20260902094558 79 0 0.0 1.0 0.00 0.00 0.00 85 1014.1
20260902093055 80 0 0.0 1.0 0.00 0.00 0.00 83 1014.0
20260902091552 80 0 0.0 0.0 0.00 0.00 0.00 80 1014.2
20260902090047 80 0 0.0 0.0 0.00 0.00 0.00 81 1014.4
20260902084602 80 0 0.0 0.0 0.00 0.00 0.00 81 1014.3
20260902083058 80 0 0.0 0.0 0.00 0.00 0.00 81 1014.2
20260902081600 80 0 0.0 0.0 0.00 0.00 0.00 80 1014.4
20260902080049 80 0 0.0 0.0 0.00 0.00 0.00 79 1014.2
20260902074545 81 0 0.0 0.0 0.00 0.00 0.00 79 1014.3
20260902073053 81 0 0.0 1.0 0.00 0.00 0.00 79 1014.2
20260902071550 81 0 0.0 1.0 0.00 0.00 0.00 80 1014.4
20260902070051 82 0 0.0 1.0 0.00 0.00 0.00 78 1014.5
20260902064557 83 0 0.0 0.0 0.00 0.00 0.00 76 1014.6
20260902063057 83 0 0.0 0.0 0.00 0.00 0.00 74 1014.4
20260902061605 83 0 0.0 0.0 0.00 0.00 0.00 73 1014.4
20260902060048 84 0 0.0 1.0 0.00 0.00 0.00 72 1014.4
20260902054556 84 0 0.0 0.0 0.00 0.00 0.00 73 1014.3
20260902053104 85 0 0.0 0.0 0.00 0.00 0.00 71 1014.3
20260902051553 85 0 0.0 0.0 0.00 0.00 0.00 71 1014.4
20260902050107 85 0 0.0 1.0 0.00 0.00 0.00 69 1014.4
20260902044558 86 353 0.0 1.0 0.00 0.00 0.00 69 1014.2
20260902043050 86 0 0.0 2.0 0.00 0.00 0.00 68 1014.3
20260902041555 87 237 0.0 1.0 0.00 0.00 0.00 67 1014.3
20260902040050 87 0 0.0 1.0 0.00 0.00 0.00 65 1014.2